Location: Eyeline Observatory
(43.2182°N, 78.8632°W)
Time: 10:49:17
(UTC-05:00)

Vanguard 2 - Pass Details

Date: 28 January 2018
Orbit: 553 x 2939 km, 32.9° (Epoch: 19 February)

Event Time Altitude Azimuth Distance (km) Brightness Sun altitude
Rises 01:41:08 0° 228° (SW) 3,074 - -60.6°
Reaches altitude 10° 01:43:28 10° 215° (SW) 2,348 - -60.4°
Maximum altitude 01:48:07 28° 157° (SSE) 1,812 - -59.8°
Drops below altitude 10° 01:54:52 10° 103° (ESE) 3,500 - -59.0°
Exits shadow 01:56:28 - 99° (E) 4,025 11.4 -58.8°
Sets 01:59:12 0° 94° (E) 4,933 11.9 -58.5°
